Lapse_Rate
3.8 3.4 2.9 2.4 2.4 2.0 -0.3 -0.4 5.1 0.5 -1.1 3.3 4.0 6.5 6.5 6.4 6.3 5.6 6.3 6.4 6.5 6.5 6.5 6.5 6.5 6.5 6.5 5.4 6.2 6.5 6.5 6.5 6.5 6.5 6.5 6.5 6.5 6.5 6.5 6.5 6.5 6.5 6.5 6.5
3.9 3.5 3.1 2.7 2.3 2.4 0.0 0.3 0.1 -0.4 0.5 6.5 6.5 6.2 6.5 6.3 6.4 6.4 6.5 6.5 6.5 6.5 6.5 6.5 6.5 6.5 6.2 4.9 6.4 6.5 6.5 6.5 6.5 6.5 6.5 6.5 6.5 6.5 6.5 6.5 6.5 6.5 6.5 6.5
3.9 3.6 3.1 2.7 2.9 2.6 0.0 1.0 6.6 1.6 -0.6 2.3 6.2 6.5 6.5 6.5 6.1 6.3 6.2 6.4 6.3 6.5 6.5 6.5 6.5 6.5 6.4 5.3 5.8 7.1 6.0 6.5 6.5 6.5 6.5 6.5 6.5 6.5 6.5 6.5 6.5 6.5 6.5 6.5
3.7 3.7 3.4 2.4 3.2 2.9 1.9 0.2 4.4 3.4 6.5 5.8 6.0 6.3 6.5 6.5 6.5 6.2 5.9 6.5 6.5 6.5 6.5 6.5 6.5 6.5 6.5 6.4 5.9 5.9 6.5 6.5 6.5 6.5 6.5 6.5 6.5 6.5 6.5 6.5 6.5 6.5 6.5 6.5
3.8 3.7 3.3 3.2 3.3 3.2 3.7 4.2 3.9 2.3 4.8 4.8 6.3 6.5 6.5 6.5 6.5 6.4 6.5 6.5 6.5 6.5 6.5 6.5 6.5 6.5 6.5 6.5 6.2 6.5 6.4 6.5 6.5 6.5 6.5 6.5 6.5 6.5 6.5 6.5 6.5 6.5 6.5 6.5
3.8 3.6 3.0 2.4 2.4 3.8 3.3 0.9 1.1 4.4 5.9 5.8 6.5 6.5 6.5 6.5 6.1 6.1 6.1 6.2 6.4 6.5 6.3 5.2 4.9 4.8 5.2 5.8 6.5 6.5 6.5 6.5 6.5 6.5 6.5 6.5 6.5 6.5 6.5 6.5 6.5 6.5 6.5 6.5
3.7 3.6 2.7 1.8 1.8 2.2 1.8 1.9 3.0 4.9 6.5 6.1 6.4 6.4 6.2 6.5 6.3 6.5 6.1 5.3 6.3 6.1 5.2 4.6 5.0 5.1 5.5 5.5 5.9 5.7 6.5 6.5 6.5 6.5 6.5 6.5 6.5 6.5 6.5 6.5 6.5 6.5 6.5 6.5
3.8 3.5 2.7 1.5 1.1 1.1 0.7 0.1 2.3 4.6 6.5 6.2 6.3 6.2 6.3 5.8 5.9 6.3 6.1 5.6 5.4 4.5 5.4 6.5 6.5 6.5 6.5 6.5 6.5 6.5 6.3 6.5 6.5 6.5 6.5 6.5 6.5 6.5 6.5 6.5 6.5 6.5 6.5 6.5
3.6 3.6 2.7 1.8 1.1 0.5 -0.1 -0.2 1.1 4.5 5.4 6.4 5.9 6.1 6.1 6.5 6.5 6.4 6.0 6.2 5.2 5.8 6.2 6.5 6.5 6.5 6.5 6.5 6.5 6.4 6.5 6.5 6.5 6.5 6.5 6.5 6.5 6.5 6.5 6.5 6.5 6.7 6.7 6.6
3.2 3.3 3.1 1.8 1.2 0.5 0.3 -0.0 0.9 2.8 5.1 4.7 5.1 6.3 6.5 6.0 6.1 6.5 5.9 6.3 6.3 6.0 6.5 6.5 6.5 6.5 6.5 6.5 6.5 6.5 6.5 6.5 6.5 6.5 6.5 6.5 6.5 6.0 5.7 6.5 6.5 6.2 6.7 6.8
3.6 3.7 3.7 2.5 1.4 0.6 0.2 0.5 1.5 3.0 3.9 3.7 4.9 4.8 5.3 6.1 6.4 6.5 6.1 6.3 6.3 6.4 6.5 6.5 6.5 6.5 6.5 6.5 6.5 6.5 6.5 6.5 6.5 6.5 6.5 6.5 5.9 6.3 6.5 6.3 6.3 6.5 6.8 7.1
3.7 4.0 3.7 2.3 2.0 1.1 0.5 2.6 2.6 3.0 4.2 3.6 4.2 5.5 6.0 6.6 6.8 5.6 5.9 6.0 6.0 6.1 6.5 6.5 6.5 6.5 6.5 6.5 6.5 6.5 6.5 6.5 6.5 6.5 6.5 6.1 6.4 6.3 6.4 5.8 6.2 6.3 6.5 6.4
3.7 3.9 2.3 1.6 3.2 2.4 1.5 2.0 1.6 2.7 3.9 4.5 5.2 5.8 5.7 5.8 5.9 6.4 6.2 5.7 5.5 5.2 4.9 6.0 6.5 6.5 6.5 6.5 6.5 6.5 6.5 6.0 6.5 6.5 6.4 5.9 5.1 5.7 5.4 6.3 6.7 6.3 6.5 6.9
3.9 2.9 2.3 3.2 3.7 3.3 1.3 2.0 2.3 3.6 4.1 6.2 6.5 6.2 6.3 5.1 5.0 6.0 6.3 5.6 5.2 5.1 5.0 5.9 6.5 6.5 6.0 6.5 6.5 6.5 6.3 6.3 6.5 6.5 6.0 4.7 5.6 5.0 5.3 5.8 6.1 6.3 6.8 7.0
3.7 2.9 3.7 4.0 4.2 2.7 2.8 3.1 3.1 3.8 4.9 6.1 5.9 5.5 5.0 4.7 4.4 5.2 5.8 5.8 5.2 5.2 5.8 6.2 6.5 6.2 6.2 6.1 6.4 6.5 5.8 6.5 6.5 6.5 5.9 6.2 5.7 5.4 5.8 6.0 6.4 6.3 6.9 7.1
4.3 4.0 4.3 4.2 2.7 3.7 4.3 5.1 4.7 4.8 4.6 4.8 6.5 5.4 6.2 4.9 4.8 4.8 5.2 5.0 4.6 5.1 5.7 6.2 5.6 5.2 5.8 6.5 6.5 6.2 5.5 5.4 5.7 5.5 5.3 5.5 4.9 5.2 6.1 5.8 5.8 6.3 7.3 7.1
4.5 4.6 4.6 4.4 5.3 4.8 4.2 4.9 3.5 5.6 4.3 3.8 5.2 4.4 5.7 6.0 5.4 4.6 5.2 4.8 4.9 5.5 5.2 5.9 5.5 5.4 5.7 6.5 6.5 6.0 5.4 4.9 4.7 5.3 4.8 4.7 6.3 5.8 5.3 5.9 6.1 6.6 6.0 6.1
4.4 5.1 5.1 5.7 6.1 5.6 4.5 3.9 5.7 6.0 3.8 3.1 6.5 5.7 4.5 5.7 5.3 5.1 4.5 5.4 5.0 4.5 4.6 5.3 5.4 6.0 6.1 6.5 6.2 5.6 5.1 4.5 5.2 5.0 5.1 5.1 4.8 4.4 5.0 6.0 6.4 6.5 6.0 6.3
5.2 5.1 5.0 4.4 5.4 5.2 4.5 6.1 5.4 4.1 4.1 2.3 3.4 6.5 6.5 4.9 5.2 5.5 5.7 5.6 6.3 5.8 5.3 6.4 6.6 6.5 6.5 6.6 5.9 5.5 5.2 5.2 5.4 4.7 4.3 4.5 4.6 4.9 4.8 5.2 5.5 6.6 6.6 6.9
5.1 4.3 3.8 5.6 6.3 7.0 6.2 4.1 3.5 0.8 -0.7 0.0 2.9 3.9 6.5 4.5 3.1 4.5 4.9 3.9 6.5 6.5 6.5 6.4 6.5 6.5 6.9 5.8 5.2 5.0 4.7 4.4 4.3 4.1 4.7 4.8 4.6 5.0 4.3 5.1 5.6 6.5 7.0 6.8
2.9 4.3 6.0 5.5 6.6 4.0 3.3 2.8 4.0 2.1 3.5 2.6 3.7 4.0 5.1 5.3 6.0 6.4 6.1 6.1 5.8 6.5 6.5 6.5 6.5 6.5 6.6 5.5 5.1 4.6 4.0 3.6 3.8 4.3 4.8 5.1 5.1 5.2 5.2 4.7 5.5 5.8 6.2 6.4
3.8 3.8 5.2 3.7 4.2 4.1 5.9 6.5 4.6 6.2 6.5 2.4 2.8 4.8 4.7 4.5 5.2 4.7 4.9 6.5 6.1 6.5 6.5 6.5 6.5 6.5 6.1 5.4 5.1 4.4 3.3 2.9 3.2 3.8 4.0 4.2 4.6 4.5 4.5 5.0 4.9 5.2 5.3 5.5
4.1 3.7 5.0 4.6 4.6 6.5 6.5 6.5 6.5 6.5 3.3 3.7 3.9 4.5 3.5 2.8 3.2 3.4 5.3 6.5 6.5 5.7 6.5 6.5 6.5 6.6 5.8 4.5 4.2 3.9 3.5 3.1 3.8 3.7 3.8 3.8 3.8 4.3 4.4 4.0 3.9 4.2 4.2 5.1
4.4 4.5 6.5 6.4 6.5 6.5 6.4 6.4 6.1 4.7 4.7 3.8 3.5 4.1 4.5 2.7 4.6 4.9 6.5 6.4 6.5 6.5 6.5 6.5 6.1 5.5 4.7 3.9 3.6 2.9 1.9 2.3 2.5 2.2 1.7 2.1 3.2 3.3 4.1 3.6 3.2 4.0 4.1 4.5
4.2 4.2 6.5 6.5 4.7 4.0 3.5 4.0 5.0 4.3 3.7 2.0 2.7 3.4 3.6 5.3 6.5 6.4 6.5 6.5 6.5 6.5 6.5 6.5 5.3 4.1 2.6 1.9 0.9 0.7 1.4 0.7 -0.2 -0.2 -0.0 0.4 1.6 2.2 2.5 2.6 3.1 4.0 3.9 4.1
3.2 3.3 5.4 6.6 5.5 5.8 5.8 4.9 4.6 3.0 2.1 2.0 2.6 5.1 6.5 6.5 6.5 6.5 6.5 6.5 6.5 6.5 5.4 4.8 4.0 2.7 0.8 -0.8 -1.0 -0.1 -0.5 -2.4 -2.4 -0.7 -0.9 1.0 0.7 0.6 1.6 2.7 3.5 3.5 3.4 4.0
4.2 5.4 5.6 5.5 4.8 4.8 3.9 4.2 3.9 1.4 3.1 6.4 4.0 6.5 6.5 6.0 6.5 6.5 6.5 6.5 6.5 3.7 4.1 3.5 2.2 1.6 0.8 0.4 0.4 0.9 0.1 -0.9 -0.0 -1.4 -0.3 -0.1 1.2 0.5 0.6 1.5 3.0 3.3 3.5 4.0
Wind_Speed
13 10 6 6 12 22 7 2 3 3 3 4 2 3 2 2 2 3 2 1 2 2 2 3 2 1 2 5 2 1 1 3 3 6 3 2 1 1 3 3 3 1 1 5
16 12 8 2 6 11 1 2 2 3 3 4 3 2 1 1 3 2 2 1 2 1 2 4 2 1 0 6 2 2 1 0 3 5 2 2 1 1 3 2 2 7 3 4
17 15 11 6 1 3 3 2 3 4 4 1 4 1 1 1 1 1 2 1 1 2 2 1 3 0 1 4 3 6 2 3 7 5 1 1 4 4 3 4 3 3 12 18
19 18 16 11 7 3 3 3 1 1 3 2 2 2 2 2 1 1 2 1 3 3 3 2 4 1 4 2 7 3 2 3 2 4 6 3 6 9 6 8 8 7 1 4
22 21 21 17 13 8 2 2 3 0 1 0 3 2 6 6 3 4 3 4 4 4 5 6 4 3 3 6 4 2 3 2 1 4 7 4 9 9 8 11 12 7 10 12
23 24 25 24 21 9 2 1 1 2 3 2 3 4 5 6 4 2 1 3 3 5 8 5 5 6 4 4 3 0 1 1 1 4 2 6 6 3 4 2 2 1 3 2
26 27 28 28 28 17 3 2 3 2 3 3 4 2 3 2 2 2 1 3 3 1 2 5 1 1 3 4 5 5 4 3 3 3 3 2 2 3 3 6 3 5 5 7
28 29 31 32 33 27 3 3 3 3 3 2 3 3 3 4 1 3 4 5 3 0 3 3 4 0 1 1 1 4 4 3 2 1 2 5 2 3 2 2 2 3 9 8
27 28 31 34 34 31 5 3 3 2 3 4 3 3 3 3 2 3 3 1 2 2 2 1 2 2 1 2 1 6 5 3 2 2 2 4 1 5 2 3 4 5 4 7
26 26 28 32 32 32 9 3 8 3 3 3 4 4 4 4 0 2 2 2 1 1 2 2 4 3 1 2 3 4 3 1 4 3 3 4 3 6 2 3 2 4 4 8
16 18 22 29 33 32 9 4 3 3 2 3 5 7 6 4 3 4 3 1 2 1 3 2 1 2 1 2 2 4 5 5 3 2 3 6 5 3 2 2 4 5 7 11
16 16 15 31 32 29 10 3 8 7 3 2 2 2 3 2 6 4 3 1 2 3 2 2 1 3 1 1 3 1 2 3 2 6 2 1 1 6 2 1 3 7 13 14
15 13 28 32 33 28 8 5 5 4 2 2 2 3 4 2 2 2 3 1 2 2 2 2 1 3 3 3 4 2 1 1 1 3 1 5 4 4 3 1 7 11 8 10
14 25 32 34 33 22 12 4 4 3 3 1 0 1 4 2 1 1 2 3 4 4 1 1 1 1 2 2 1 2 0 2 1 4 4 9 1 2 9 15 9 8 13 14
26 33 34 33 30 23 19 10 5 5 2 3 1 1 2 1 3 3 3 5 4 2 2 2 2 1 1 0 1 3 1 1 2 3 0 4 8 10 14 10 13 15 16 17
34 36 34 34 32 28 4 2 1 3 1 3 2 2 2 5 5 5 5 2 2 2 2 2 2 1 2 2 3 2 2 1 0 3 6 8 13 12 5 14 17 17 17 17
38 36 38 33 23 8 2 3 5 13 3 2 2 2 3 1 2 2 2 3 1 1 2 1 2 1 2 1 2 3 1 3 5 2 6 5 2 8 15 13 16 18 17 15
42 40 36 31 25 11 4 6 15 9 4 3 3 2 1 1 2 2 1 1 1 2 2 1 2 2 1 1 2 2 3 6 1 3 4 8 11 12 13 13 13 15 15 16
44 42 32 11 6 2 2 12 15 12 3 3 2 4 3 1 1 2 1 1 1 1 1 2 3 2 3 2 1 2 3 2 6 9 8 6 8 12 13 14 15 14 16 16
40 9 5 3 1 16 5 5 3 4 3 3 2 1 2 2 0 1 2 2 1 1 2 3 2 2 6 3 2 1 2 3 5 5 9 12 12 13 16 15 14 14 15 15
3 3 3 2 3 3 3 2 2 3 3 1 1 2 2 2 3 2 1 2 0 1 3 2 2 2 2 3 2 2 2 3 4 4 7 8 9 11 13 15 15 14 16 15
8 10 7 3 3 3 4 1 3 2 3 2 3 2 2 1 1 3 1 3 2 3 1 1 1 2 2 2 2 3 4 5 6 5 7 8 10 10 10 12 13 14 15 15
5 4 4 2 2 4 5 5 3 1 3 3 2 1 2 2 3 3 2 2 3 1 1 1 1 2 2 3 3 4 4 5 5 7 7 8 10 10 9 11 11 13 13 13
4 4 5 2 1 2 3 3 3 2 2 3 3 2 2 1 3 1 3 2 1 2 1 3 1 0 2 3 3 3 6 6 6 6 7 8 9 10 10 8 10 11 12 13
4 3 3 1 2 2 1 2 2 2 2 2 3 3 2 2 3 2 2 2 2 3 2 1 1 1 2 3 3 4 4 5 5 4 5 7 8 8 9 9 10 10 11 12
3 5 3 2 3 2 2 2 2 1 2 1 3 3 3 2 2 2 2 4 3 2 1 1 1 2 3 3 3 4 4 3 4 4 4 5 6 7 9 9 8 10 11 12
4 3 2 2 4 3 1 1 1 1 2 2 2 3 2 2 3 1 2 3 2 2 1 1 1 2 4 3 4 3 3 3 4 4 5 4 6 6 5 10 10 9 10 9
Wind_Direction
250 255 267 323 348 341 28 24 26 306 26 45 43 62 352 318 339 45 54 71 269 279 336 298 291 303 266 323 314 35 12 138 254 239 319 3 340 189 144 138 259 130 196 264
244 239 239 272 3 8 67 67 279 320 64 82 26 304 17 344 351 18 45 47 321 347 291 309 206 17 218 354 39 119 158 309 334 340 15 51 95 103 117 111 156 195 223 255
236 231 218 196 72 3 80 40 360 336 48 23 126 83 81 355 49 21 64 82 9 308 294 254 284 229 298 327 9 336 187 202 192 213 203 130 271 227 175 158 242 268 246 281
234 220 208 189 190 157 93 26 290 305 315 12 104 179 159 166 251 128 114 299 229 208 278 276 257 304 342 327 354 53 74 262 232 271 277 239 257 261 228 224 240 241 6 290
221 213 198 188 183 154 89 178 162 52 189 274 158 246 210 177 191 177 219 202 189 197 223 209 250 188 171 246 347 82 339 238 47 253 264 283 273 272 246 247 246 256 268 281
220 212 196 185 178 165 137 139 56 91 154 186 167 222 205 191 140 192 213 193 169 232 246 255 249 216 215 222 198 218 304 178 81 263 2 325 286 277 217 133 80 247 256 358
218 212 200 185 178 178 132 166 114 152 250 202 209 149 173 168 199 275 251 154 173 249 335 298 178 143 253 238 240 201 191 171 174 268 346 253 135 9 83 110 86 56 21 325
223 213 203 190 184 180 127 141 135 155 237 205 219 179 147 84 329 238 214 214 204 320 15 334 331 208 249 72 73 234 201 171 218 223 257 307 113 8 18 15 111 37 352 323
231 221 207 194 189 178 127 132 114 127 137 211 86 107 127 201 225 295 258 169 161 108 92 38 270 263 299 231 138 26 111 64 164 173 218 249 140 300 233 171 205 14 321 319
237 229 212 196 183 177 149 137 152 117 172 204 156 173 165 134 1 289 313 276 203 154 146 216 222 244 177 238 209 176 127 196 226 231 253 282 318 291 298 168 244 324 323 321
259 250 219 185 176 172 134 111 160 122 155 143 184 160 160 146 186 176 137 13 268 85 176 213 282 271 299 297 231 188 174 165 205 179 228 268 339 4 57 297 325 315 315 313
257 244 209 170 169 163 138 112 110 90 56 110 350 327 310 198 161 139 164 191 160 200 165 194 166 213 150 267 281 327 248 195 206 187 240 102 110 229 70 15 278 321 318 314
250 219 163 162 164 161 116 108 123 83 149 109 167 200 210 260 282 322 139 172 183 198 19 172 168 223 136 205 239 291 218 84 226 345 70 312 275 160 58 334 313 309 304 307
233 164 159 159 158 141 124 126 136 94 97 131 122 47 107 48 62 220 337 122 83 104 146 143 151 221 145 222 219 217 234 348 160 265 344 335 61 46 341 329 323 312 308 303
170 154 153 147 142 124 93 75 83 100 114 134 121 0 17 77 124 138 146 134 134 161 138 116 196 105 149 37 11 244 74 160 174 263 175 243 279 304 317 319 322 315 310 307
147 145 142 140 133 124 110 108 218 178 73 107 142 346 41 35 79 95 104 107 89 109 151 157 150 152 140 161 234 117 103 36 124 277 311 276 272 291 311 321 315 311 305 304
142 140 135 133 126 77 89 177 157 150 101 91 75 25 15 40 104 47 57 21 79 113 128 150 146 177 156 202 231 137 5 301 285 270 329 304 225 307 314 311 309 306 301 298
130 128 120 113 105 90 45 34 113 122 97 73 127 227 79 191 151 98 292 142 86 3 136 103 141 135 140 252 107 51 342 312 236 310 259 257 287 303 309 312 310 309 309 312
122 116 106 68 33 65 133 105 86 69 83 126 97 145 197 42 110 110 107 254 77 36 162 205 162 157 217 112 106 11 346 324 293 301 286 293 310 313 320 319 319 316 316 317
121 76 62 80 338 121 122 14 33 16 347 48 114 16 163 112 93 359 112 344 92 159 234 134 210 170 107 91 112 110 327 326 326 327 337 336 328 328 320 320 316 317 316 320
54 104 81 63 84 58 39 52 55 343 10 17 162 168 152 302 119 149 53 161 29 117 249 193 213 169 114 70 64 25 355 325 309 280 285 295 298 304 311 314 319 321 325 326
126 104 98 71 35 47 88 340 341 83 218 295 123 170 139 81 40 99 5 125 63 226 222 121 234 101 92 29 347 346 348 340 333 321 310 312 313 313 308 310 318 328 327 328
59 61 83 83 334 83 151 202 300 284 193 195 152 70 122 28 48 55 95 106 209 46 91 224 96 96 47 349 331 327 350 351 326 327 326 324 318 320 323 321 328 328 330 336
73 89 89 109 197 255 180 170 172 216 136 115 95 71 77 35 60 144 103 234 54 65 224 218 207 83 323 332 340 352 335 337 333 326 320 322 322 320 323 323 327 332 336 339
75 69 90 136 188 64 165 169 98 37 96 86 77 55 80 19 81 24 91 49 265 205 218 168 176 274 296 309 328 325 316 314 320 311 319 316 315 322 319 329 333 336 342 349
70 51 81 97 86 44 61 62 77 13 91 63 47 99 65 34 117 84 202 121 222 225 217 262 324 304 292 270 272 287 278 304 309 314 304 310 322 326 314 325 338 343 350 352
62 43 17 75 68 97 83 56 61 3 64 111 110 79 184 118 54 9 190 183 210 219 271 269 239 267 289 263 269 299 330 334 328 312 312 302 312 316 334 357 339 347 349 354